Вернуться в каталог

COSMOS 1253

АктивенВоенныеLEO
NORAD 12323·PAYLOAD·🇷🇺 Russia

Запущен Mar 6, 1981 с Plesetsk Cosmodrome

Loading…

Ближайшие Пролёты (ближайшие 24 часа)

TLE

СвежийSource: Space-Track

Эпоха: Sep 14, 2026, 15:21 UTC

1 12323U 81022D   26257.64000955 -.00000015  00000-0  29380-5 0  9999
2 12323  74.0324  24.1149 0018419 278.4290  92.8501 12.45841957 70467

Отслеживайте COSMOS 1253 в реальном времени с AllMySat

Download on the App Store